owner,sensor,date,latitude,longitude,mass_concentration_of_chlorophyll_in_sea_water,qcFlag 
SCCF RECON,ioos:station:SCCF:11:1,2019-04-01T04:00:00Z,26.4679,-82.0631,1.68,1111122 
SCCF RECON,ioos:station:SCCF:11:1,2019-04-01T05:00:00Z,26.4679,-82.0631,1.64,1111122 
SCCF RECON,ioos:station:SCCF:11:1,2019-04-01T06:00:00Z,26.4679,-82.0631,1.65,1111122 
SCCF RECON,ioos:station:SCCF:11:1,2019-04-01T07:00:00Z,26.4679,-82.0631,1.76,1111122 
SCCF RECON,ioos:station:SCCF:11:1,2019-04-01T08:00:00Z,26.4679,-82.0631,1.83,1111122 
SCCF RECON,ioos:station:SCCF:11:1,2019-04-01T09:00:00Z,26.4679,-82.0631,1.85,1111122 
SCCF RECON,ioos:station:SCCF:11:1,2019-04-01T10:00:00Z,26.4679,-82.0631,1.82,1111122 
SCCF RECON,ioos:station:SCCF:11:1,2019-04-01T11:00:00Z,26.4679,-82.0631,1.77,1111122 
SCCF RECON,ioos:station:SCCF:11:1,2019-04-01T12:00:00Z,26.4679,-82.0631,1.66,1111122 
SCCF RECON,ioos:station:SCCF:11:1,2019-04-01T13:00:00Z,26.4679,-82.0631,1.6,1111122 
SCCF RECON,ioos:station:SCCF:11:1,2019-04-01T14:00:00Z,26.4679,-82.0631,1.73,1111122 
SCCF RECON,ioos:station:SCCF:11:1,2019-04-01T15:00:00Z,26.4679,-82.0631,1.64,1111122 
SCCF RECON,ioos:station:SCCF:11:1,2019-04-01T16:00:00Z,26.4679,-82.0631,1.6,1111122 
SCCF RECON,ioos:station:SCCF:11:1,2019-04-01T17:00:00Z,26.4679,-82.0631,1.71,1111122 
SCCF RECON,ioos:station:SCCF:11:1,2019-04-01T18:00:00Z,26.4679,-82.0631,1.75,1111122 
SCCF RECON,ioos:station:SCCF:11:1,2019-04-01T19:00:00Z,26.4679,-82.0631,1.79,1111122 
SCCF RECON,ioos:station:SCCF:11:1,2019-04-01T20:00:00Z,26.4679,-82.0631,2.03,1111122 
SCCF RECON,ioos:station:SCCF:11:1,2019-04-01T21:00:00Z,26.4679,-82.0631,2.24,1111122 
SCCF RECON,ioos:station:SCCF:11:1,2019-04-01T22:00:00Z,26.4679,-82.0631,2.35,1111122 
SCCF RECON,ioos:station:SCCF:11:1,2019-04-01T23:00:00Z,26.4679,-82.0631,2.54,1111122 
SCCF RECON,ioos:station:SCCF:11:1,2019-04-02T04:00:00Z,26.4679,-82.0631,2.41,1111122 
SCCF RECON,ioos:station:SCCF:11:1,2019-04-02T05:00:00Z,26.4679,-82.0631,2.12,1111122 
SCCF RECON,ioos:station:SCCF:11:1,2019-04-02T06:00:00Z,26.4679,-82.0631,2.24,1111122 
SCCF RECON,ioos:station:SCCF:11:1,2019-04-02T07:00:00Z,26.4679,-82.0631,1.81,1111122 
SCCF RECON,ioos:station:SCCF:11:1,2019-04-02T08:00:00Z,26.4679,-82.0631,1.85,1111122 
SCCF RECON,ioos:station:SCCF:11:1,2019-04-02T09:00:00Z,26.4679,-82.0631,1.83,1111122 
SCCF RECON,ioos:station:SCCF:11:1,2019-04-02T10:00:00Z,26.4679,-82.0631,1.77,1111122 
SCCF RECON,ioos:station:SCCF:11:1,2019-04-02T11:00:00Z,26.4679,-82.0631,1.77,1111122 
SCCF RECON,ioos:station:SCCF:11:1,2019-04-02T12:00:00Z,26.4679,-82.0631,1.71,1111122 
SCCF RECON,ioos:station:SCCF:11:1,2019-04-02T13:00:00Z,26.4679,-82.0631,1.78,1111122 
SCCF RECON,ioos:station:SCCF:11:1,2019-04-02T14:00:00Z,26.4679,-82.0631,1.76,1111122 
SCCF RECON,ioos:station:SCCF:11:1,2019-04-02T16:00:00Z,26.4679,-82.0631,1.82,1111122 
SCCF RECON,ioos:station:SCCF:11:1,2019-04-02T17:00:00Z,26.4679,-82.0631,1.81,1111122 
SCCF RECON,ioos:station:SCCF:11:1,2019-04-02T18:00:00Z,26.4679,-82.0631,1.95,1111122 
SCCF RECON,ioos:station:SCCF:11:1,2019-04-02T19:00:00Z,26.4679,-82.0631,1.95,1111122 
SCCF RECON,ioos:station:SCCF:11:1,2019-04-02T20:00:00Z,26.4679,-82.0631,1.92,1111122 
SCCF RECON,ioos:station:SCCF:11:1,2019-04-02T21:00:00Z,26.4679,-82.0631,1.99,1111122 
SCCF RECON,ioos:station:SCCF:11:1,2019-04-02T22:00:00Z,26.4679,-82.0631,2.14,1111122 
SCCF RECON,ioos:station:SCCF:11:1,2019-04-02T23:00:00Z,26.4679,-82.0631,2.18,1111122 
SCCF RECON,ioos:station:SCCF:11:1,2019-04-03T04:00:00Z,26.4679,-82.0631,2.16,1111122 
SCCF RECON,ioos:station:SCCF:11:1,2019-04-03T05:00:00Z,26.4679,-82.0631,2.1,1111122 
SCCF RECON,ioos:station:SCCF:11:1,2019-04-03T06:00:00Z,26.4679,-82.0631,2.14,1111122 
SCCF RECON,ioos:station:SCCF:11:1,2019-04-03T07:00:00Z,26.4679,-82.0631,1.89,1111122 
SCCF RECON,ioos:station:SCCF:11:1,2019-04-03T08:00:00Z,26.4679,-82.0631,1.82,1111122 
SCCF RECON,ioos:station:SCCF:11:1,2019-04-03T09:00:00Z,26.4679,-82.0631,1.77,1111122 
SCCF RECON,ioos:station:SCCF:11:1,2019-04-03T10:00:00Z,26.4679,-82.0631,1.75,1111122 
SCCF RECON,ioos:station:SCCF:11:1,2019-04-03T11:00:00Z,26.4679,-82.0631,1.75,1111122 
SCCF RECON,ioos:station:SCCF:11:1,2019-04-03T12:00:00Z,26.4679,-82.0631,1.78,1111122 
SCCF RECON,ioos:station:SCCF:11:1,2019-04-03T13:00:00Z,26.4679,-82.0631,3.43,1111122 
SCCF RECON,ioos:station:SCCF:11:1,2019-04-03T14:00:00Z,26.4679,-82.0631,3.84,1111122 
SCCF RECON,ioos:station:SCCF:11:1,2019-04-03T15:00:00Z,26.4679,-82.0631,3.68,1111122 
SCCF RECON,ioos:station:SCCF:11:1,2019-04-03T16:00:00Z,26.4679,-82.0631,3.15,1111122 
SCCF RECON,ioos:station:SCCF:11:1,2019-04-03T17:00:00Z,26.4679,-82.0631,4.13,1111122 
SCCF RECON,ioos:station:SCCF:11:1,2019-04-03T18:00:00Z,26.4679,-82.0631,2.34,1111122 
SCCF RECON,ioos:station:SCCF:11:1,2019-04-03T19:00:00Z,26.4679,-82.0631,2.42,1111122 
SCCF RECON,ioos:station:SCCF:11:1,2019-04-03T20:00:00Z,26.4679,-82.0631,1.87,1111122 
SCCF RECON,ioos:station:SCCF:11:1,2019-04-03T21:00:00Z,26.4679,-82.0631,1.96,1111122 
SCCF RECON,ioos:station:SCCF:11:1,2019-04-03T22:00:00Z,26.4679,-82.0631,2.06,1111122 
SCCF RECON,ioos:station:SCCF:11:1,2019-04-03T23:00:00Z,26.4679,-82.0631,3.06,1111122 
SCCF RECON,ioos:station:SCCF:11:1,2019-04-04T04:00:00Z,26.4679,-82.0631,18.55,1111122 
SCCF RECON,ioos:station:SCCF:11:1,2019-04-04T05:00:00Z,26.4679,-82.0631,43.22,1111122 
SCCF RECON,ioos:station:SCCF:11:1,2019-04-04T06:00:00Z,26.4679,-82.0631,8.93,1111122 
SCCF RECON,ioos:station:SCCF:11:1,2019-04-04T07:00:00Z,26.4679,-82.0631,2.34,1111122 
SCCF RECON,ioos:station:SCCF:11:1,2019-04-04T08:00:00Z,26.4679,-82.0631,2.09,1111122 
SCCF RECON,ioos:station:SCCF:11:1,2019-04-04T09:00:00Z,26.4679,-82.0631,1.72,1111122 
SCCF RECON,ioos:station:SCCF:11:1,2019-04-04T10:00:00Z,26.4679,-82.0631,1.63,1111122 
SCCF RECON,ioos:station:SCCF:11:1,2019-04-04T11:00:00Z,26.4679,-82.0631,1.68,1111122 
SCCF RECON,ioos:station:SCCF:11:1,2019-04-04T12:00:00Z,26.4679,-82.0631,1.81,1111122 
SCCF RECON,ioos:station:SCCF:11:1,2019-04-04T13:00:00Z,26.4679,-82.0631,4.2,1111122 
SCCF RECON,ioos:station:SCCF:11:1,2019-04-04T14:00:00Z,26.4679,-82.0631,4.82,1111122 
SCCF RECON,ioos:station:SCCF:11:1,2019-04-04T15:00:00Z,26.4679,-82.0631,4.72,1111122 
SCCF RECON,ioos:station:SCCF:11:1,2019-04-04T16:00:00Z,26.4679,-82.0631,4.49,1111122 
SCCF RECON,ioos:station:SCCF:11:1,2019-04-04T17:00:00Z,26.4679,-82.0631,4.6,1111122 
SCCF RECON,ioos:station:SCCF:11:1,2019-04-04T18:00:00Z,26.4679,-82.0631,4.9,1111122 
SCCF RECON,ioos:station:SCCF:11:1,2019-04-04T19:00:00Z,26.4679,-82.0631,3.46,1111122 
SCCF RECON,ioos:station:SCCF:11:1,2019-04-04T20:00:00Z,26.4679,-82.0631,7.74,1111122 
SCCF RECON,ioos:station:SCCF:11:1,2019-04-04T21:00:00Z,26.4679,-82.0631,2.85,1111122 
SCCF RECON,ioos:station:SCCF:11:1,2019-04-04T22:00:00Z,26.4679,-82.0631,2.3,1111122 
SCCF RECON,ioos:station:SCCF:11:1,2019-04-04T23:00:00Z,26.4679,-82.0631,2.44,1111122 
SCCF RECON,ioos:station:SCCF:11:1,2019-04-05T04:00:00Z,26.4679,-82.0631,7.23,1111122 
SCCF RECON,ioos:station:SCCF:11:1,2019-04-05T05:00:00Z,26.4679,-82.0631,6.4,1111122 
SCCF RECON,ioos:station:SCCF:11:1,2019-04-05T06:00:00Z,26.4679,-82.0631,5.51,1111122 
SCCF RECON,ioos:station:SCCF:11:1,2019-04-05T07:00:00Z,26.4679,-82.0631,2.36,1111122 
SCCF RECON,ioos:station:SCCF:11:1,2019-04-05T08:00:00Z,26.4679,-82.0631,1.92,1111122 
SCCF RECON,ioos:station:SCCF:11:1,2019-04-05T09:00:00Z,26.4679,-82.0631,1.91,1111122 
SCCF RECON,ioos:station:SCCF:11:1,2019-04-05T10:00:00Z,26.4679,-82.0631,1.88,1111122 
SCCF RECON,ioos:station:SCCF:11:1,2019-04-05T11:00:00Z,26.4679,-82.0631,1.88,1111122 
SCCF RECON,ioos:station:SCCF:11:1,2019-04-05T12:00:00Z,26.4679,-82.0631,1.83,1111122 
SCCF RECON,ioos:station:SCCF:11:1,2019-04-05T13:00:00Z,26.4679,-82.0631,6.29,1111122 
SCCF RECON,ioos:station:SCCF:11:1,2019-04-05T14:00:00Z,26.4679,-82.0631,5.56,1111122 
SCCF RECON,ioos:station:SCCF:11:1,2019-04-05T15:00:00Z,26.4679,-82.0631,5.04,1111122 
SCCF RECON,ioos:station:SCCF:11:1,2019-04-05T16:00:00Z,26.4679,-82.0631,5.45,1111122 
SCCF RECON,ioos:station:SCCF:11:1,2019-04-05T17:00:00Z,26.4679,-82.0631,5.98,1111122 
SCCF RECON,ioos:station:SCCF:11:1,2019-04-05T18:00:00Z,26.4679,-82.0631,5.04,1111122 
SCCF RECON,ioos:station:SCCF:11:1,2019-04-05T19:00:00Z,26.4679,-82.0631,4.13,1111122 
SCCF RECON,ioos:station:SCCF:11:1,2019-04-05T20:00:00Z,26.4679,-82.0631,2.15,1111122 
SCCF RECON,ioos:station:SCCF:11:1,2019-04-05T21:00:00Z,26.4679,-82.0631,1.89,1111122 
SCCF RECON,ioos:station:SCCF:11:1,2019-04-05T22:00:00Z,26.4679,-82.0631,2.14,1111122 
SCCF RECON,ioos:station:SCCF:11:1,2019-04-05T23:00:00Z,26.4679,-82.0631,2.31,1111122 
SCCF RECON,ioos:station:SCCF:11:1,2019-04-06T04:00:00Z,26.4679,-82.0631,9.41,1111122 
SCCF RECON,ioos:station:SCCF:11:1,2019-04-06T05:00:00Z,26.4679,-82.0631,9.05,1111122 
SCCF RECON,ioos:station:SCCF:11:1,2019-04-06T06:00:00Z,26.4679,-82.0631,8.34,1111122 
SCCF RECON,ioos:station:SCCF:11:1,2019-04-06T07:00:00Z,26.4679,-82.0631,7.79,1111122 
SCCF RECON,ioos:station:SCCF:11:1,2019-04-06T08:00:00Z,26.4679,-82.0631,2.1,1111122 
SCCF RECON,ioos:station:SCCF:11:1,2019-04-06T09:00:00Z,26.4679,-82.0631,1.7,1111122 
SCCF RECON,ioos:station:SCCF:11:1,2019-04-06T10:00:00Z,26.4679,-82.0631,1.77,1111122 
SCCF RECON,ioos:station:SCCF:11:1,2019-04-06T11:00:00Z,26.4679,-82.0631,1.83,1111122 
SCCF RECON,ioos:station:SCCF:11:1,2019-04-06T12:00:00Z,26.4679,-82.0631,1.75,1111122 
SCCF RECON,ioos:station:SCCF:11:1,2019-04-06T13:00:00Z,26.4679,-82.0631,1.7,1111122 
SCCF RECON,ioos:station:SCCF:11:1,2019-04-06T14:00:00Z,26.4679,-82.0631,3.9,1111122 
SCCF RECON,ioos:station:SCCF:11:1,2019-04-06T15:00:00Z,26.4679,-82.0631,7.62,1111122 
SCCF RECON,ioos:station:SCCF:11:1,2019-04-06T16:00:00Z,26.4679,-82.0631,73.58,1111122 
SCCF RECON,ioos:station:SCCF:11:1,2019-04-06T17:00:00Z,26.4679,-82.0631,73.58,1111122 
SCCF RECON,ioos:station:SCCF:11:1,2019-04-06T18:00:00Z,26.4679,-82.0631,73.58,1111122 
SCCF RECON,ioos:station:SCCF:11:1,2019-04-06T19:00:00Z,26.4679,-82.0631,69.97,1111122 
SCCF RECON,ioos:station:SCCF:11:1,2019-04-06T20:00:00Z,26.4679,-82.0631,3.96,1111122 
SCCF RECON,ioos:station:SCCF:11:1,2019-04-06T21:00:00Z,26.4679,-82.0631,2.04,1111122 
SCCF RECON,ioos:station:SCCF:11:1,2019-04-06T22:00:00Z,26.4679,-82.0631,2.17,1111122 
SCCF RECON,ioos:station:SCCF:11:1,2019-04-06T23:00:00Z,26.4679,-82.0631,2.72,1111122 
SCCF RECON,ioos:station:SCCF:11:1,2019-04-07T04:00:00Z,26.4679,-82.0631,12.61,1111122 
SCCF RECON,ioos:station:SCCF:11:1,2019-04-07T05:00:00Z,26.4679,-82.0631,12.44,1111122 
SCCF RECON,ioos:station:SCCF:11:1,2019-04-07T06:00:00Z,26.4679,-82.0631,16.69,1111122 
SCCF RECON,ioos:station:SCCF:11:1,2019-04-07T07:00:00Z,26.4679,-82.0631,29.14,1111122 
SCCF RECON,ioos:station:SCCF:11:1,2019-04-07T08:00:00Z,26.4679,-82.0631,29.07,1111122 
SCCF RECON,ioos:station:SCCF:11:1,2019-04-07T09:00:00Z,26.4679,-82.0631,33.73,1111122 
SCCF RECON,ioos:station:SCCF:11:1,2019-04-07T10:00:00Z,26.4679,-82.0631,10.68,1111122 
SCCF RECON,ioos:station:SCCF:11:1,2019-04-07T11:00:00Z,26.4679,-82.0631,9.49,1111122 
SCCF RECON,ioos:station:SCCF:11:1,2019-04-07T12:00:00Z,26.4679,-82.0631,4.21,1111122 
SCCF RECON,ioos:station:SCCF:11:1,2019-04-07T13:00:00Z,26.4679,-82.0631,4.35,1111122 
SCCF RECON,ioos:station:SCCF:11:1,2019-04-07T14:00:00Z,26.4679,-82.0631,2.82,1111122 
SCCF RECON,ioos:station:SCCF:11:1,2019-04-07T15:00:00Z,26.4679,-82.0631,2.86,1111122 
SCCF RECON,ioos:station:SCCF:11:1,2019-04-07T16:00:00Z,26.4679,-82.0631,71.96,1111122 
SCCF RECON,ioos:station:SCCF:11:1,2019-04-07T17:00:00Z,26.4679,-82.0631,46.12,1111122 
SCCF RECON,ioos:station:SCCF:11:1,2019-04-07T18:00:00Z,26.4679,-82.0631,73.46,1111122 
SCCF RECON,ioos:station:SCCF:11:1,2019-04-07T19:00:00Z,26.4679,-82.0631,67.71,1111122 
SCCF RECON,ioos:station:SCCF:11:1,2019-04-07T20:00:00Z,26.4679,-82.0631,73.58,1111122 
SCCF RECON,ioos:station:SCCF:11:1,2019-04-07T21:00:00Z,26.4679,-82.0631,25.05,1111122 
SCCF RECON,ioos:station:SCCF:11:1,2019-04-07T22:00:00Z,26.4679,-82.0631,10.94,1111122 
SCCF RECON,ioos:station:SCCF:11:1,2019-04-07T23:00:00Z,26.4679,-82.0631,6.0,1111122 
SCCF RECON,ioos:station:SCCF:11:1,2019-04-08T04:00:00Z,26.4679,-82.0631,62.57,1111122 
SCCF RECON,ioos:station:SCCF:11:1,2019-04-08T05:00:00Z,26.4679,-82.0631,73.58,1111122 
SCCF RECON,ioos:station:SCCF:11:1,2019-04-08T06:00:00Z,26.4679,-82.0631,66.36,1111122 
SCCF RECON,ioos:station:SCCF:11:1,2019-04-08T07:00:00Z,26.4679,-82.0631,26.39,1111122 
SCCF RECON,ioos:station:SCCF:11:1,2019-04-08T08:00:00Z,26.4679,-82.0631,42.77,1111122 
SCCF RECON,ioos:station:SCCF:11:1,2019-04-08T09:00:00Z,26.4679,-82.0631,40.61,1111122 
SCCF RECON,ioos:station:SCCF:11:1,2019-04-08T10:00:00Z,26.4679,-82.0631,34.48,1111122 
SCCF RECON,ioos:station:SCCF:11:1,2019-04-08T11:00:00Z,26.4679,-82.0631,42.47,1111122 
SCCF RECON,ioos:station:SCCF:11:1,2019-04-08T12:00:00Z,26.4679,-82.0631,3.81,1111122 
SCCF RECON,ioos:station:SCCF:11:1,2019-04-08T13:00:00Z,26.4679,-82.0631,3.08,1111122 
SCCF RECON,ioos:station:SCCF:11:1,2019-04-08T14:00:00Z,26.4679,-82.0631,26.97,1111122 
SCCF RECON,ioos:station:SCCF:11:1,2019-04-08T15:00:00Z,26.4679,-82.0631,19.88,1111122 
SCCF RECON,ioos:station:SCCF:11:1,2019-04-08T16:00:00Z,26.4679,-82.0631,43.32,1111122 
SCCF RECON,ioos:station:SCCF:11:1,2019-04-08T17:00:00Z,26.4679,-82.0631,44.69,1111122 
SCCF RECON,ioos:station:SCCF:11:1,2019-04-08T18:00:00Z,26.4679,-82.0631,64.49,1111122 
SCCF RECON,ioos:station:SCCF:11:1,2019-04-08T19:00:00Z,26.4679,-82.0631,72.37,1111122 
SCCF RECON,ioos:station:SCCF:11:1,2019-04-08T20:00:00Z,26.4679,-82.0631,70.2,1111122 
SCCF RECON,ioos:station:SCCF:11:1,2019-04-08T21:00:00Z,26.4679,-82.0631,73.31,1111122 
SCCF RECON,ioos:station:SCCF:11:1,2019-04-08T22:00:00Z,26.4679,-82.0631,73.33,1111122 
SCCF RECON,ioos:station:SCCF:11:1,2019-04-08T23:00:00Z,26.4679,-82.0631,57.27,1111122 
SCCF RECON,ioos:station:SCCF:11:1,2019-04-09T04:00:00Z,26.4679,-82.0631,64.5,1111122 
SCCF RECON,ioos:station:SCCF:11:1,2019-04-09T05:00:00Z,26.4679,-82.0631,73.58,1111122 
SCCF RECON,ioos:station:SCCF:11:1,2019-04-09T06:00:00Z,26.4679,-82.0631,73.58,1111122 
SCCF RECON,ioos:station:SCCF:11:1,2019-04-09T07:00:00Z,26.4679,-82.0631,73.58,1111122 
SCCF RECON,ioos:station:SCCF:11:1,2019-04-09T08:00:00Z,26.4679,-82.0631,73.58,1111122 
SCCF RECON,ioos:station:SCCF:11:1,2019-04-09T09:00:00Z,26.4679,-82.0631,73.58,1111122 
SCCF RECON,ioos:station:SCCF:11:1,2019-04-09T10:00:00Z,26.4679,-82.0631,63.5,1111122 
SCCF RECON,ioos:station:SCCF:11:1,2019-04-09T11:00:00Z,26.4679,-82.0631,58.27,1111122 
SCCF RECON,ioos:station:SCCF:11:1,2019-04-09T12:00:00Z,26.4679,-82.0631,67.75,1111122 
SCCF RECON,ioos:station:SCCF:11:1,2019-04-09T13:00:00Z,26.4679,-82.0631,73.58,1111122 
SCCF RECON,ioos:station:SCCF:11:1,2019-04-09T14:00:00Z,26.4679,-82.0631,73.58,1111122 
SCCF RECON,ioos:station:SCCF:11:1,2019-04-09T15:00:00Z,26.4679,-82.0631,39.61,1111122 
SCCF RECON,ioos:station:SCCF:11:1,2019-04-09T16:00:00Z,26.4679,-82.0631,66.83,1111122 
SCCF RECON,ioos:station:SCCF:11:1,2019-04-09T17:00:00Z,26.4679,-82.0631,68.08,1111122 
SCCF RECON,ioos:station:SCCF:11:1,2019-04-09T18:00:00Z,26.4679,-82.0631,73.58,1111122 
SCCF RECON,ioos:station:SCCF:11:1,2019-04-09T19:00:00Z,26.4679,-82.0631,73.58,1111122 
SCCF RECON,ioos:station:SCCF:11:1,2019-04-09T20:00:00Z,26.4679,-82.0631,73.58,1111122 
SCCF RECON,ioos:station:SCCF:11:1,2019-04-09T21:00:00Z,26.4679,-82.0631,73.58,1111122 
SCCF RECON,ioos:station:SCCF:11:1,2019-04-09T22:00:00Z,26.4679,-82.0631,65.35,1111122 
SCCF RECON,ioos:station:SCCF:11:1,2019-04-09T23:00:00Z,26.4679,-82.0631,35.86,1111122 
SCCF RECON,ioos:station:SCCF:11:1,2019-04-10T04:00:00Z,26.4679,-82.0631,3.42,1111122 
SCCF RECON,ioos:station:SCCF:11:1,2019-04-10T05:00:00Z,26.4679,-82.0631,72.24,1111122 
SCCF RECON,ioos:station:SCCF:11:1,2019-04-10T06:00:00Z,26.4679,-82.0631,73.58,1111122 
SCCF RECON,ioos:station:SCCF:11:1,2019-04-10T07:00:00Z,26.4679,-82.0631,73.58,1111122 
SCCF RECON,ioos:station:SCCF:11:1,2019-04-10T08:00:00Z,26.4679,-82.0631,69.38,1111122 
SCCF RECON,ioos:station:SCCF:11:1,2019-04-10T09:00:00Z,26.4679,-82.0631,67.58,1111122 
SCCF RECON,ioos:station:SCCF:11:1,2019-04-10T10:00:00Z,26.4679,-82.0631,51.43,1111122 
SCCF RECON,ioos:station:SCCF:11:1,2019-04-10T11:00:00Z,26.4679,-82.0631,38.33,1111122 
SCCF RECON,ioos:station:SCCF:11:1,2019-04-10T12:00:00Z,26.4679,-82.0631,20.44,1111122 
SCCF RECON,ioos:station:SCCF:11:1,2019-04-10T13:00:00Z,26.4679,-82.0631,13.97,1111122 
SCCF RECON,ioos:station:SCCF:11:1,2019-04-10T14:00:00Z,26.4679,-82.0631,14.2,1111122 
SCCF RECON,ioos:station:SCCF:11:1,2019-04-10T15:00:00Z,26.4679,-82.0631,17.74,1111122 
SCCF RECON,ioos:station:SCCF:11:1,2019-04-10T16:00:00Z,26.4679,-82.0631,13.02,1111122 
SCCF RECON,ioos:station:SCCF:11:1,2019-04-10T17:00:00Z,26.4679,-82.0631,73.58,1111122 
SCCF RECON,ioos:station:SCCF:11:1,2019-04-10T18:00:00Z,26.4679,-82.0631,73.58,1111122 
SCCF RECON,ioos:station:SCCF:11:1,2019-04-10T19:00:00Z,26.4679,-82.0631,73.58,1111122 
SCCF RECON,ioos:station:SCCF:11:1,2019-04-10T20:00:00Z,26.4679,-82.0631,73.58,1111122 
SCCF RECON,ioos:station:SCCF:11:1,2019-04-10T21:00:00Z,26.4679,-82.0631,73.47,1111122 
SCCF RECON,ioos:station:SCCF:11:1,2019-04-10T22:00:00Z,26.4679,-82.0631,67.57,1111122 
SCCF RECON,ioos:station:SCCF:11:1,2019-04-10T23:00:00Z,26.4679,-82.0631,47.36,1111122 
SCCF RECON,ioos:station:SCCF:11:1,2019-04-11T04:00:00Z,26.4679,-82.0631,10.77,1111122 
SCCF RECON,ioos:station:SCCF:11:1,2019-04-11T05:00:00Z,26.4679,-82.0631,14.55,1111122 
SCCF RECON,ioos:station:SCCF:11:1,2019-04-11T06:00:00Z,26.4679,-82.0631,73.58,1111122 
SCCF RECON,ioos:station:SCCF:11:1,2019-04-11T07:00:00Z,26.4679,-82.0631,73.58,1111122 
SCCF RECON,ioos:station:SCCF:11:1,2019-04-11T08:00:00Z,26.4679,-82.0631,70.0,1111122 
SCCF RECON,ioos:station:SCCF:11:1,2019-04-11T09:00:00Z,26.4679,-82.0631,58.47,1111122 
SCCF RECON,ioos:station:SCCF:11:1,2019-04-11T10:00:00Z,26.4679,-82.0631,58.46,1111122 
SCCF RECON,ioos:station:SCCF:11:1,2019-04-11T11:00:00Z,26.4679,-82.0631,49.52,1111122 
SCCF RECON,ioos:station:SCCF:11:1,2019-04-11T12:00:00Z,26.4679,-82.0631,38.41,1111122 
SCCF RECON,ioos:station:SCCF:11:1,2019-04-11T13:00:00Z,26.4679,-82.0631,32.47,1111122 
SCCF RECON,ioos:station:SCCF:11:1,2019-04-11T14:00:00Z,26.4679,-82.0631,30.56,1111122 
SCCF RECON,ioos:station:SCCF:11:1,2019-04-11T15:00:00Z,26.4679,-82.0631,29.57,1111122 
SCCF RECON,ioos:station:SCCF:11:1,2019-04-11T16:00:00Z,26.4679,-82.0631,30.43,1111122 
SCCF RECON,ioos:station:SCCF:11:1,2019-04-11T17:00:00Z,26.4679,-82.0631,30.99,1111122 
SCCF RECON,ioos:station:SCCF:11:1,2019-04-11T18:00:00Z,26.4679,-82.0631,31.41,1111122 
SCCF RECON,ioos:station:SCCF:11:1,2019-04-11T19:00:00Z,26.4679,-82.0631,33.18,1111122 
SCCF RECON,ioos:station:SCCF:11:1,2019-04-11T20:00:00Z,26.4679,-82.0631,32.22,1111122 
SCCF RECON,ioos:station:SCCF:11:1,2019-04-11T21:00:00Z,26.4679,-82.0631,32.94,1111122 
SCCF RECON,ioos:station:SCCF:11:1,2019-04-11T22:00:00Z,26.4679,-82.0631,27.64,1111122 
SCCF RECON,ioos:station:SCCF:11:1,2019-04-11T23:00:00Z,26.4679,-82.0631,30.96,1111122 
SCCF RECON,ioos:station:SCCF:11:1,2019-04-12T04:00:00Z,26.4679,-82.0631,39.06,1111122 
SCCF RECON,ioos:station:SCCF:11:1,2019-04-12T05:00:00Z,26.4679,-82.0631,38.31,1111122 
SCCF RECON,ioos:station:SCCF:11:1,2019-04-12T06:00:00Z,26.4679,-82.0631,23.74,1111122 
SCCF RECON,ioos:station:SCCF:11:1,2019-04-12T07:00:00Z,26.4679,-82.0631,49.6,1111122 
SCCF RECON,ioos:station:SCCF:11:1,2019-04-12T08:00:00Z,26.4679,-82.0631,52.62,1111122 
SCCF RECON,ioos:station:SCCF:11:1,2019-04-12T09:00:00Z,26.4679,-82.0631,35.03,1111122 
SCCF RECON,ioos:station:SCCF:11:1,2019-04-12T10:00:00Z,26.4679,-82.0631,26.86,1111122 
SCCF RECON,ioos:station:SCCF:11:1,2019-04-12T11:00:00Z,26.4679,-82.0631,26.23,1111122 
SCCF RECON,ioos:station:SCCF:11:1,2019-04-12T12:00:00Z,26.4679,-82.0631,23.79,1111122 
SCCF RECON,ioos:station:SCCF:11:1,2019-04-12T13:00:00Z,26.4679,-82.0631,21.17,1111122 
SCCF RECON,ioos:station:SCCF:11:1,2019-04-12T14:00:00Z,26.4679,-82.0631,21.31,1111122 
SCCF RECON,ioos:station:SCCF:11:1,2019-04-12T15:00:00Z,26.4679,-82.0631,20.4,1111122 
SCCF RECON,ioos:station:SCCF:11:1,2019-04-12T16:00:00Z,26.4679,-82.0631,18.69,1111122 
SCCF RECON,ioos:station:SCCF:11:1,2019-04-12T17:00:00Z,26.4679,-82.0631,17.65,1111122 
SCCF RECON,ioos:station:SCCF:11:1,2019-04-12T18:00:00Z,26.4679,-82.0631,19.39,1111122 
SCCF RECON,ioos:station:SCCF:11:1,2019-04-12T19:00:00Z,26.4679,-82.0631,21.49,1111122 
SCCF RECON,ioos:station:SCCF:11:1,2019-04-12T20:00:00Z,26.4679,-82.0631,21.85,1111122 
SCCF RECON,ioos:station:SCCF:11:1,2019-04-12T21:00:00Z,26.4679,-82.0631,21.05,1111122 
SCCF RECON,ioos:station:SCCF:11:1,2019-04-12T22:00:00Z,26.4679,-82.0631,19.62,1111122 
SCCF RECON,ioos:station:SCCF:11:1,2019-04-12T23:00:00Z,26.4679,-82.0631,37.96,1111122 
SCCF RECON,ioos:station:SCCF:11:1,2019-04-13T04:00:00Z,26.4679,-82.0631,22.4,1111122 
SCCF RECON,ioos:station:SCCF:11:1,2019-04-13T05:00:00Z,26.4679,-82.0631,18.47,1111122 
SCCF RECON,ioos:station:SCCF:11:1,2019-04-13T06:00:00Z,26.4679,-82.0631,15.5,1111122 
SCCF RECON,ioos:station:SCCF:11:1,2019-04-13T07:00:00Z,26.4679,-82.0631,16.82,1111122 
SCCF RECON,ioos:station:SCCF:11:1,2019-04-13T08:00:00Z,26.4679,-82.0631,30.06,1111122 
SCCF RECON,ioos:station:SCCF:11:1,2019-04-13T09:00:00Z,26.4679,-82.0631,26.63,1111122 
SCCF RECON,ioos:station:SCCF:11:1,2019-04-13T10:00:00Z,26.4679,-82.0631,26.91,1111122 
SCCF RECON,ioos:station:SCCF:11:1,2019-04-13T11:00:00Z,26.4679,-82.0631,24.81,1111122 
SCCF RECON,ioos:station:SCCF:11:1,2019-04-13T12:00:00Z,26.4679,-82.0631,25.33,1111122 
SCCF RECON,ioos:station:SCCF:11:1,2019-04-13T13:00:00Z,26.4679,-82.0631,21.95,1111122 
SCCF RECON,ioos:station:SCCF:11:1,2019-04-13T14:00:00Z,26.4679,-82.0631,23.01,1111122 
SCCF RECON,ioos:station:SCCF:11:1,2019-04-13T15:00:00Z,26.4679,-82.0631,21.33,1111122 
SCCF RECON,ioos:station:SCCF:11:1,2019-04-13T16:00:00Z,26.4679,-82.0631,22.45,1111122 
SCCF RECON,ioos:station:SCCF:11:1,2019-04-13T17:00:00Z,26.4679,-82.0631,22.94,1111122 
SCCF RECON,ioos:station:SCCF:11:1,2019-04-13T18:00:00Z,26.4679,-82.0631,25.83,1111122 
SCCF RECON,ioos:station:SCCF:11:1,2019-04-13T19:00:00Z,26.4679,-82.0631,22.42,1111122 
SCCF RECON,ioos:station:SCCF:11:1,2019-04-13T20:00:00Z,26.4679,-82.0631,22.45,1111122 
SCCF RECON,ioos:station:SCCF:11:1,2019-04-13T21:00:00Z,26.4679,-82.0631,23.28,1111122 
SCCF RECON,ioos:station:SCCF:11:1,2019-04-13T22:00:00Z,26.4679,-82.0631,23.53,1111122 
SCCF RECON,ioos:station:SCCF:11:1,2019-04-13T23:00:00Z,26.4679,-82.0631,23.5,1111122 
SCCF RECON,ioos:station:SCCF:11:1,2019-04-14T04:00:00Z,26.4679,-82.0631,23.57,1111122 
SCCF RECON,ioos:station:SCCF:11:1,2019-04-14T05:00:00Z,26.4679,-82.0631,20.83,1111122 
SCCF RECON,ioos:station:SCCF:11:1,2019-04-14T06:00:00Z,26.4679,-82.0631,22.99,1111122 
SCCF RECON,ioos:station:SCCF:11:1,2019-04-14T07:00:00Z,26.4679,-82.0631,20.81,1111122 
SCCF RECON,ioos:station:SCCF:11:1,2019-04-14T08:00:00Z,26.4679,-82.0631,22.41,1111122 
SCCF RECON,ioos:station:SCCF:11:1,2019-04-14T09:00:00Z,26.4679,-82.0631,27.96,1111122 
SCCF RECON,ioos:station:SCCF:11:1,2019-04-14T10:00:00Z,26.4679,-82.0631,30.08,1111122 
SCCF RECON,ioos:station:SCCF:11:1,2019-04-14T11:00:00Z,26.4679,-82.0631,28.9,1111122 
SCCF RECON,ioos:station:SCCF:11:1,2019-04-14T12:00:00Z,26.4679,-82.0631,27.91,1111122 
SCCF RECON,ioos:station:SCCF:11:1,2019-04-14T13:00:00Z,26.4679,-82.0631,27.98,1111122 
SCCF RECON,ioos:station:SCCF:11:1,2019-04-14T14:00:00Z,26.4679,-82.0631,27.4,1111122 
SCCF RECON,ioos:station:SCCF:11:1,2019-04-14T15:00:00Z,26.4679,-82.0631,24.68,1111122 
SCCF RECON,ioos:station:SCCF:11:1,2019-04-14T16:00:00Z,26.4679,-82.0631,11.29,1111122 
SCCF RECON,ioos:station:SCCF:11:1,2019-04-14T17:00:00Z,26.4679,-82.0631,12.35,1111122 
SCCF RECON,ioos:station:SCCF:11:1,2019-04-14T18:00:00Z,26.4679,-82.0631,10.95,1111122 
SCCF RECON,ioos:station:SCCF:11:1,2019-04-14T19:00:00Z,26.4679,-82.0631,10.97,1111122 
SCCF RECON,ioos:station:SCCF:11:1,2019-04-14T20:00:00Z,26.4679,-82.0631,11.26,1111122 